CW2972 Weather Reports


time (UTC)temp
C
wind
direction
speed
KPH
gust
KPH
rain 1hr
cm
rain 24hr
cm
rain mn
cm
humidity
%
barometer
mb
20260507145221 16 278 1.6 8.0 0.00 0.41 0.10 60 1017.8
20260507145021 16 300 1.6 8.0 0.00 0.41 0.10 60 1017.9
20260507144821 16 4 1.6 8.0 0.00 0.41 0.10 64 1017.8
20260507144621 16 37 1.6 6.4 0.00 0.41 0.10 63 1017.8
20260507144421 16 34 1.6 6.4 0.00 0.41 0.10 65 1017.8
20260507144221 15 34 1.6 6.4 0.00 0.41 0.10 62 1017.8
20260507144042 15 31 1.6 6.4 0.00 0.41 0.10 63 1017.8
20260507143821 15 22 1.6 6.4 0.00 0.41 0.10 62 1017.8
20260507143621 15 23 1.6 4.8 0.00 0.41 0.10 63 1017.8
20260507143421 15 25 1.6 4.8 0.00 0.41 0.10 64 1017.8
20260507143221 15 24 1.6 6.4 0.00 0.43 0.10 66 1017.8
20260507143022 15 29 1.6 6.4 0.00 0.43 0.10 64 1017.8
20260507142842 15 37 1.6 6.4 0.00 0.43 0.10 65 1017.8
20260507142621 15 40 1.6 6.4 0.00 0.43 0.10 64 1017.8
20260507142442 15 41 1.6 6.4 0.00 0.43 0.10 65 1017.8
20260507142242 15 46 1.6 6.4 0.00 0.43 0.10 62 1017.8
20260507142021 15 49 1.6 4.8 0.00 0.43 0.10 63 1017.8
20260507141821 15 52 1.6 4.8 0.00 0.43 0.10 63 1017.8
20260507141621 15 21 1.6 8.0 0.00 0.43 0.10 64 1017.9
20260507141421 15 13 1.6 8.0 0.00 0.43 0.10 64 1017.9
20260507141242 15 5 1.6 8.0 0.00 0.43 0.10 64 1017.9
20260507141021 15 10 1.6 8.0 0.00 0.43 0.10 64 1017.8
20260507140821 15 5 3.2 8.0 0.00 0.43 0.10 64 1017.7
20260507140621 15 33 3.2 6.4 0.00 0.43 0.10 66 1017.6
20260507140421 15 34 3.2 8.0 0.00 0.43 0.10 65 1017.5
20260507140221 14 39 3.2 8.0 0.00 0.46 0.10 66 1017.5
20260507140022 14 41 3.2 8.0 0.00 0.46 0.10 68 1017.5
20260507135821 14 40 3.2 8.0 0.00 0.46 0.10 66 1017.5
20260507135621 14 38 3.2 8.0 0.00 0.46 0.10 65 1017.5
20260507135421 14 40 3.2 6.4 0.00 0.46 0.10 67 1017.6
20260507135223 14 40 3.2 6.4 0.00 0.46 0.10 65 1017.5
20260507135021 14 37 3.2 6.4 0.00 0.46 0.10 66 1017.6
20260507134821 14 39 3.2 6.4 0.03 0.46 0.10 66 1017.6
20260507134642 14 35 3.2 8.0 0.03 0.46 0.10 67 1017.6
20260507134421 13 35 3.2 8.0 0.03 0.46 0.10 68 1017.6
20260507134221 13 30 3.2 8.0 0.03 0.46 0.10 68 1017.6
20260507134021 13 34 3.2 8.0 0.03 0.46 0.10 68 1017.6
20260507133821 13 37 3.2 8.0 0.03 0.48 0.10 67 1017.6
20260507133621 13 36 3.2 6.4 0.03 0.48 0.10 67 1017.6
20260507133421 13 34 3.2 8.0 0.03 0.48 0.10 68 1017.5
20260507133221 13 32 3.2 8.0 0.03 0.48 0.10 68 1017.5
20260507133021 13 29 3.2 8.0 0.03 0.48 0.10 69 1017.5
20260507132821 13 28 3.2 8.0 0.03 0.48 0.10 69 1017.4
20260507132621 13 31 3.2 8.0 0.03 0.48 0.10 69 1017.4
20260507132422 13 33 3.2 8.0 0.03 0.48 0.10 68 1017.5
20260507132221 13 39 1.6 6.4 0.03 0.48 0.10 70 1017.5
20260507132021 13 45 1.6 6.4 0.03 0.51 0.10 71 1017.5
20260507131821 13 43 1.6 6.4 0.03 0.51 0.10 71 1017.5
20260507131621 13 42 1.6 4.8 0.03 0.51 0.10 71 1017.5
20260507131421 12 43 1.6 4.8 0.03 0.51 0.10 72 1017.5
20260507131221 12 44 1.6 6.4 0.03 0.51 0.10 73 1017.4
20260507131021 12 43 1.6 6.4 0.03 0.51 0.10 74 1017.3
20260507130821 12 39 1.6 8.0 0.03 0.53 0.10 75 1017.3
20260507130642 12 37 1.6 8.0 0.03 0.53 0.10 75 1017.4
20260507130421 12 41 1.6 8.0 0.03 0.53 0.10 74 1017.4
20260507130221 11 40 1.6 8.0 0.03 0.53 0.10 76 1017.4
20260507130021 11 43 3.2 8.0 0.03 0.53 0.10 76 1017.4
20260507125821 11 54 3.2 6.4 0.03 0.53 0.10 77 1017.4
20260507125642 11 52 3.2 11.3 0.03 0.53 0.10 77 1017.3
20260507125421 11 46 3.2 11.3 0.03 0.56 0.10 78 1017.3
20260507125221 11 42 3.2 11.3 0.03 0.56 0.10 78 1017.4
20260507125042 10 38 1.6 11.3 0.03 0.56 0.10 79 1017.4
20260507124821 10 31 1.6 11.3 0.00 0.53 0.10 79 1017.5
20260507124621 10 29 1.6 8.0 0.00 0.53 0.08 81 1017.5
20260507124421 10 33 1.6 8.0 0.00 0.53 0.08 81 1017.5
20260507124221 10 30 1.6 8.0 0.00 0.53 0.08 81 1017.5
20260507124021 10 34 1.6 8.0 0.00 0.56 0.08 81 1017.5
20260507123821 10 41 1.6 8.0 0.00 0.56 0.08 82 1017.5
20260507123621 10 38 1.6 8.0 0.00 0.56 0.08 81 1017.5
20260507123421 10 32 1.6 8.0 0.00 0.56 0.08 82 1017.4
20260507123221 10 30 1.6 8.0 0.00 0.56 0.08 82 1017.4
20260507123021 10 26 1.6 8.0 0.00 0.58 0.08 83 1017.4
20260507122842 10 22 1.6 8.0 0.00 0.58 0.08 83 1017.4
20260507122621 10 25 1.6 8.0 0.00 0.58 0.08 83 1017.4
20260507122421 10 25 1.6 8.0 0.00 0.58 0.08 83 1017.4
20260507122221 10 33 1.6 8.0 0.00 0.58 0.08 83 1017.3
20260507122021 10 37 1.6 6.4 0.00 0.61 0.08 83 1017.4
20260507121823 9 38 1.6 6.4 0.00 0.61 0.08 84 1017.4
20260507121621 9 39 1.6 6.4 0.00 0.61 0.08 84 1017.4
20260507121421 9 42 1.6 6.4 0.00 0.64 0.08 84 1017.4
20260507121221 9 30 1.6 11.3 0.00 0.64 0.08 84 1017.3
20260507121042 9 29 1.6 11.3 0.00 0.64 0.08 85 1017.4
20260507120821 9 29 1.6 11.3 0.00 0.66 0.08 86 1017.4
20260507120621 9 30 1.6 11.3 0.00 0.66 0.08 86 1017.4
20260507120421 8 32 1.6 11.3 0.00 0.69 0.08 86 1017.4
20260507120242 8 39 1.6 4.8 0.00 0.69 0.08 86 1017.4
20260507120021 8 42 0.0 4.8 0.00 0.71 0.08 87 1017.3
20260507115821 8 39 0.0 3.2 0.00 0.71 0.08 87 1017.3
20260507115621 8 37 0.0 3.2 0.00 0.71 0.08 87 1017.3
20260507115421 8 30 0.0 3.2 0.00 0.74 0.08 87 1017.3
20260507115221 8 31 0.0 3.2 0.00 0.74 0.08 88 1017.3
20260507115021 8 33 0.0 3.2 0.00 0.74 0.08 88 1017.3
20260507114821 8 37 0.0 3.2 0.00 0.76 0.08 88 1017.3
20260507114621 8 43 0.0 3.2 0.00 0.76 0.08 89 1017.2
20260507114421 8 20 0.0 3.2 0.00 0.79 0.08 89 1017.2
20260507114221 8 356 0.0 3.2 0.00 0.79 0.08 89 1017.2
20260507114021 8 236 0.0 1.6 0.00 0.79 0.08 89 1017.2
20260507113842 8 237 0.0 1.6 0.00 0.81 0.08 89 1017.1
20260507113621 8 264 0.0 1.6 0.00 0.81 0.08 89 1017.2
20260507113421 8 291 0.0 1.6 0.00 0.84 0.08 90 1017.2
20260507113221 8 0 0.0 0.0 0.00 0.84 0.08 90 1017.3
20260507113021 8 0 0.0 0.0 0.00 0.86 0.08 90 1017.1
20260507112843 7 0 0.0 0.0 0.00 0.86 0.08 90 1017.1
20260507112621 7 0 0.0 0.0 0.00 0.89 0.08 90 1017.0
20260507112421 7 0 0.0 0.0 0.00 0.89 0.08 90 1017.1
20260507112221 7 0 0.0 0.0 0.00 0.89 0.08 90 1017.1
20260507112021 7 0 0.0 0.0 0.00 0.91 0.08 90 1017.1
20260507111821 7 0 0.0 0.0 0.00 0.91 0.08 90 1017.1
20260507111642 7 0 0.0 0.0 0.00 0.94 0.08 90 1017.1
20260507111442 7 0 0.0 0.0 0.00 0.94 0.08 90 1017.1
20260507111221 7 0 0.0 0.0 0.00 0.97 0.08 90 1017.1
20260507111042 7 0 0.0 0.0 0.00 0.97 0.08 90 1017.0
20260507110821 7 0 0.0 0.0 0.03 0.99 0.08 90 1017.0
20260507110621 7 0 0.0 0.0 0.03 0.99 0.08 90 1017.0
20260507110421 7 0 0.0 0.0 0.03 0.99 0.08 90 1017.0
20260507110221 7 0 0.0 0.0 0.03 1.02 0.08 90 1016.9
20260507110021 7 0 0.0 0.0 0.03 1.02 0.08 90 1016.9
20260507105842 7 0 0.0 0.0 0.03 1.02 0.08 90 1016.8
20260507105621 7 0 0.0 0.0 0.03 1.02 0.08 90 1016.7
20260507105421 7 0 0.0 0.0 0.03 1.04 0.08 90 1016.8
20260507105221 7 0 0.0 0.0 0.03 1.04 0.08 89 1016.7
20260507105021 7 0 0.0 0.0 0.03 1.04 0.08 89 1016.8
20260507104821 8 0 0.0 0.0 0.03 1.04 0.08 89 1016.7
20260507104621 8 0 0.0 0.0 0.03 1.07 0.08 89 1016.8
20260507104421 8 0 0.0 0.0 0.03 1.07 0.08 89 1016.7
20260507104221 8 0 0.0 0.0 0.03 1.07 0.08 89 1016.7
20260507104021 8 0 0.0 0.0 0.03 1.07 0.08 89 1016.7
20260507103842 8 0 0.0 0.0 0.03 1.07 0.08 89 1016.6
20260507103642 8 0 0.0 0.0 0.03 1.07 0.08 89 1016.7
20260507103421 8 0 0.0 0.0 0.03 1.09 0.08 88 1016.6
20260507103242 8 0 0.0 0.0 0.03 1.09 0.08 88 1016.5
20260507103042 8 0 0.0 0.0 0.03 1.09 0.08 88 1016.6
20260507102821 8 0 0.0 0.0 0.03 1.09 0.08 88 1016.5
20260507102621 8 0 0.0 0.0 0.03 1.09 0.08 88 1016.5
20260507102421 8 0 0.0 0.0 0.03 1.09 0.08 88 1016.5
20260507102242 8 0 0.0 0.0 0.03 1.09 0.08 88 1016.5
20260507102021 8 0 0.0 0.0 0.03 1.09 0.08 88 1016.5
20260507101821 8 0 0.0 0.0 0.03 1.09 0.08 88 1016.6
20260507101621 8 0 0.0 0.0 0.03 1.12 0.08 88 1016.5
20260507101421 8 0 0.0 0.0 0.03 1.12 0.08 87 1016.4
20260507101221 8 0 0.0 0.0 0.03 1.12 0.08 87 1016.4
20260507101021 8 0 0.0 0.0 0.03 1.12 0.08 87 1016.5
20260507100821 8 0 0.0 0.0 0.00 1.12 0.05 87 1016.5
20260507100621 8 0 0.0 0.0 0.00 1.12 0.05 87 1016.5
20260507100421 8 0 0.0 0.0 0.00 1.12 0.05 87 1016.4
20260507100221 8 0 0.0 0.0 0.00 1.12 0.05 87 1016.4
20260507100042 8 0 0.0 0.0 0.00 1.14 0.05 87 1016.4
20260507095821 8 0 0.0 0.0 0.00 1.14 0.05 87 1016.4
20260507095621 8 0 0.0 0.0 0.00 1.14 0.05 87 1016.4
20260507095421 8 0 0.0 0.0 0.00 1.17 0.05 87 1016.4
20260507095221 8 0 0.0 0.0 0.00 1.17 0.05 87 1016.3
20260507095021 8 0 0.0 0.0 0.00 1.17 0.05 87 1016.3
20260507094822 8 0 0.0 0.0 0.00 1.19 0.05 87 1016.3
20260507094621 8 0 0.0 0.0 0.00 1.19 0.05 87 1016.3
20260507094421 8 0 0.0 0.0 0.00 1.22 0.05 87 1016.3
20260507094221 8 0 0.0 0.0 0.00 1.22 0.05 87 1016.4
20260507094021 9 0 0.0 0.0 0.00 1.24 0.05 87 1016.4
20260507093821 9 0 0.0 0.0 0.00 1.24 0.05 87 1016.4
20260507093621 9 0 0.0 0.0 0.00 1.27 0.05 87 1016.3
20260507093421 9 0 0.0 0.0 0.00 1.27 0.05 87 1016.3
20260507093221 9 0 0.0 0.0 0.00 1.30 0.05 87 1016.3
20260507093021 9 0 0.0 0.0 0.00 1.30 0.05 87 1016.3
20260507092821 9 0 0.0 0.0 0.00 1.32 0.05 87 1016.3
20260507092621 9 0 0.0 0.0 0.00 1.35 0.05 87 1016.3
20260507092421 9 0 0.0 0.0 0.00 1.37 0.05 87 1016.1
20260507092221 9 0 0.0 0.0 0.00 1.37 0.05 87 1016.1
20260507092042 9 0 0.0 0.0 0.00 1.40 0.05 87 1016.1
20260507091821 9 0 0.0 0.0 0.00 1.42 0.05 87 1016.1
20260507091621 9 0 0.0 0.0 0.00 1.45 0.05 87 1016.1
20260507091421 9 0 0.0 0.0 0.00 1.47 0.05 87 1016.1
20260507091221 9 0 0.0 0.0 0.00 1.50 0.05 87 1016.2
20260507091021 9 0 0.0 0.0 0.00 1.52 0.05 87 1016.2
20260507090821 9 0 0.0 0.0 0.00 1.57 0.05 87 1016.2
20260507090622 9 0 0.0 0.0 0.00 1.60 0.05 87 1016.2
20260507090421 9 0 0.0 0.0 0.00 1.60 0.05 87 1016.2
20260507090222 9 0 0.0 0.0 0.00 1.60 0.05 87 1016.2
20260507090021 9 0 0.0 0.0 0.00 1.60 0.05 87 1016.2
20260507085821 9 0 0.0 0.0 0.00 1.63 0.05 87 1016.2
20260507085622 9 0 0.0 0.0 0.00 1.68 0.05 87 1016.1
20260507085442 9 0 0.0 0.0 0.00 1.68 0.05 87 1016.1
20260507085221 9 0 0.0 0.0 0.00 1.70 0.05 87 1016.0
20260507085021 9 0 0.0 0.0 0.00 1.73 0.05 87 1016.0
20260507084842 9 23 0.0 1.6 0.00 1.80 0.05 87 1016.0
20260507084621 9 23 0.0 1.6 0.00 1.85 0.05 87 1015.8
20260507084421 9 23 0.0 1.6 0.03 1.93 0.05 88 1015.9
20260507084221 9 23 0.0 1.6 0.03 1.96 0.05 88 1016.0
20260507084021 9 23 0.0 1.6 0.03 1.96 0.05 88 1015.9
20260507083821 9 0 0.0 0.0 0.03 1.96 0.05 88 1015.9
20260507083621 9 0 0.0 0.0 0.03 1.98 0.05 88 1015.9
20260507083421 9 0 0.0 0.0 0.03 2.01 0.05 88 1016.0
20260507083221 9 0 0.0 0.0 0.03 2.03 0.05 88 1015.8
20260507083022 9 293 0.0 1.6 0.03 2.08 0.05 88 1015.8
20260507082821 9 293 0.0 1.6 0.03 2.13 0.05 89 1015.9
20260507082621 9 293 0.0 1.6 0.03 2.16 0.05 89 1016.0
20260507082421 9 293 0.0 1.6 0.03 2.16 0.05 89 1016.0
20260507082221 9 293 0.0 1.6 0.03 2.18 0.05 89 1015.9
20260507082021 9 0 0.0 0.0 0.03 2.21 0.05 89 1016.0
20260507081821 9 293 0.0 1.6 0.03 2.21 0.05 89 1016.0
20260507081622 9 293 0.0 1.6 0.03 2.21 0.05 90 1016.1
20260507081421 9 293 0.0 1.6 0.03 2.24 0.05 90 1016.1
20260507081221 9 293 0.0 1.6 0.03 2.24 0.05 90 1016.1
20260507081021 9 293 0.0 1.6 0.03 2.24 0.05 90 1016.1
20260507080821 9 0 0.0 0.0 0.03 2.24 0.05 91 1016.1
20260507080621 9 0 0.0 0.0 0.03 2.24 0.05 91 1016.1
20260507080421 8 0 0.0 0.0 0.03 2.24 0.05 91 1016.1
20260507080221 9 0 0.0 0.0 0.03 2.24 0.05 91 1016.1
20260507080021 9 0 0.0 0.0 0.03 2.24 0.05 91 1016.1
20260507075821 9 0 0.0 0.0 0.03 2.24 0.05 91 1016.1
20260507075621 9 0 0.0 0.0 0.03 2.24 0.05 91 1016.1
20260507075421 9 0 0.0 0.0 0.03 2.24 0.05 91 1016.1
20260507075221 9 0 0.0 0.0 0.03 2.26 0.05 91 1016.2
20260507075021 9 0 0.0 0.0 0.03 2.26 0.05 91 1016.0
20260507074842 9 0 0.0 0.0 0.03 2.29 0.05 91 1016.0
20260507074621 9 277 0.0 1.6 0.03 2.36 0.05 91 1016.1
20260507074421 9 277 0.0 1.6 0.00 2.39 0.03 91 1016.0
20260507074221 9 277 0.0 1.6 0.00 2.39 0.03 91 1016.0
20260507074022 9 277 0.0 1.6 0.00 2.41 0.03 91 1016.0
20260507073821 9 277 0.0 1.6 0.00 2.44 0.03 91 1016.1
20260507073642 9 277 0.0 1.6 0.00 2.44 0.03 91 1016.2
20260507073442 9 277 0.0 1.6 0.00 2.44 0.03 91 1016.2
20260507073222 9 277 0.0 1.6 0.00 2.44 0.03 91 1016.2
20260507073021 10 277 0.0 1.6 0.00 2.44 0.03 91 1016.3
20260507072821 10 277 0.0 1.6 0.00 2.44 0.03 90 1016.3
20260507072621 10 0 0.0 0.0 0.00 2.44 0.03 90 1016.3
20260507072421 10 0 0.0 0.0 0.00 2.46 0.03 90 1016.3
20260507072221 10 0 0.0 0.0 0.00 2.49 0.03 90 1016.3
20260507072042 10 0 0.0 0.0 0.00 2.51 0.03 90 1016.3
20260507071821 10 0 0.0 0.0 0.00 2.51 0.03 90 1016.3
20260507071621 10 0 0.0 0.0 0.00 2.51 0.03 90 1016.4
20260507071424 10 0 0.0 0.0 0.00 2.54 0.03 90 1016.4
20260507071221 10 0 0.0 0.0 0.00 2.54 0.03 90 1016.5
20260507071021 10 0 0.0 0.0 0.00 2.54 0.03 89 1016.4
20260507070821 10 277 0.0 1.6 0.00 2.54 0.03 89 1016.3
20260507070621 10 277 0.0 1.6 0.00 2.54 0.03 89 1016.1
20260507070423 10 277 0.0 1.6 0.00 2.54 0.03 89 1016.2
20260507070221 10 277 0.0 1.6 0.00 2.54 0.03 89 1016.2
20260507070021 10 277 0.0 1.6 0.00 2.54 0.03 89 1016.1
20260507065821 10 279 0.0 1.6 0.00 2.54 0.03 89 1016.0
20260507065621 10 279 0.0 1.6 0.00 2.54 0.03 90 1015.9
20260507065421 10 280 0.0 1.6 0.00 2.54 0.03 90 1015.7
20260507065221 10 281 0.0 1.6 0.00 2.54 0.03 90 1015.7
20260507065021 10 281 0.0 1.6 0.00 2.54 0.03 90 1015.7
20260507064821 10 281 0.0 1.6 0.00 2.54 0.03 90 1015.6
20260507064621 10 281 0.0 1.6 0.00 2.54 0.03 90 1015.6
20260507064422 10 283 0.0 1.6 0.00 2.54 0.03 90 1015.6
20260507064221 10 285 0.0 1.6 0.00 2.54 0.03 90 1015.8
20260507064021 10 285 0.0 1.6 0.03 2.54 0.03 90 1015.9
20260507063843 10 285 0.0 1.6 0.03 2.54 0.03 90 1015.9
20260507063642 10 285 0.0 1.6 0.03 2.54 0.03 90 1016.0
20260507063421 10 286 0.0 1.6 0.03 2.57 0.03 91 1015.9
20260507063242 10 0 0.0 0.0 0.03 2.57 0.03 91 1015.7
20260507063021 10 0 0.0 0.0 0.03 2.57 0.03 91 1015.6
20260507062821 10 0 0.0 0.0 0.03 2.59 0.03 92 1015.7
20260507062621 10 0 0.0 0.0 0.03 2.59 0.03 92 1015.7
20260507062421 10 0 0.0 0.0 0.03 2.59 0.03 92 1015.7
20260507062221 10 0 0.0 0.0 0.03 2.59 0.03 92 1015.8
20260507062022 10 0 0.0 0.0 0.03 2.62 0.03 92 1015.8
20260507061821 10 0 0.0 0.0 0.03 2.62 0.03 92 1015.7
20260507061621 10 0 0.0 0.0 0.03 2.62 0.03 92 1015.7
20260507061421 10 0 0.0 0.0 0.03 2.62 0.03 92 1015.9
20260507061221 10 0 0.0 0.0 0.03 2.62 0.03 92 1015.9
20260507061021 10 0 0.0 0.0 0.03 2.62 0.03 92 1015.9
20260507060821 10 0 0.0 0.0 0.03 2.62 0.03 92 1016.0
20260507060642 10 0 0.0 0.0 0.03 2.62 0.03 92 1016.0
20260507060442 10 0 0.0 0.0 0.03 2.64 0.03 92 1016.1
20260507060221 10 0 0.0 0.0 0.03 2.64 0.03 92 1016.1
20260507060021 10 0 0.0 0.0 0.03 2.69 0.03 92 1016.2
20260507055821 10 0 0.0 0.0 0.03 2.79 0.03 92 1016.2
20260507055621 10 0 0.0 0.0 0.03 2.79 0.03 91 1016.1
20260507055421 10 0 0.0 0.0 0.03 2.82 0.03 91 1016.2
20260507055221 10 0 0.0 0.0 0.03 2.84 0.03 91 1016.1
20260507055021 10 0 0.0 0.0 0.03 2.87 0.03 91 1016.0
20260507054821 10 0 0.0 0.0 0.03 3.05 0.03 91 1016.1
20260507054621 10 0 0.0 0.0 0.03 3.10 0.03 91 1016.2
20260507054421 10 0 0.0 0.0 0.03 3.10 0.03 91 1016.3
20260507054221 10 0 0.0 0.0 0.03 3.10 0.03 91 1016.3
20260507054021 10 0 0.0 0.0 0.00 3.07 0.00 91 1016.4
20260507053842 10 0 0.0 0.0 0.00 3.07 0.00 91 1016.4
20260507053621 10 0 0.0 0.0 0.00 3.07 0.00 91 1016.4
20260507053421 10 0 0.0 0.0 0.00 3.07 0.00 90 1016.4
20260507053221 10 0 0.0 0.0 0.00 3.07 0.00 90 1016.3
20260507053021 10 0 0.0 0.0 0.00 3.07 0.00 90 1016.2
20260507052821 10 0 0.0 0.0 0.00 3.07 0.00 90 1016.1
20260507052623 10 0 0.0 0.0 0.00 3.07 0.00 89 1016.1
20260507052421 10 0 0.0 0.0 0.00 3.07 0.00 89 1016.2
20260507052242 10 0 0.0 0.0 0.00 3.07 0.00 89 1016.3
20260507052021 10 0 0.0 0.0 0.00 3.07 0.00 89 1016.3
20260507051821 10 0 0.0 0.0 0.00 3.07 0.00 89 1016.2
20260507051622 10 0 0.0 0.0 0.00 3.07 0.00 89 1016.2
20260507051421 10 0 0.0 0.0 0.00 3.07 0.00 89 1016.3
20260507051242 10 0 0.0 0.0 0.00 3.07 0.00 89 1016.5
20260507051021 10 0 0.0 0.0 0.00 3.07 0.00 89 1016.5
20260507050821 10 0 0.0 0.0 0.00 3.07 0.00 89 1016.4
20260507050621 10 0 0.0 0.0 0.00 3.07 0.00 88 1016.4
20260507050442 10 0 0.0 0.0 0.00 3.07 0.00 88 1016.4
20260507050221 10 0 0.0 0.0 0.00 3.07 0.00 88 1016.5
20260507050042 10 0 0.0 0.0 0.00 3.07 0.00 88 1016.6
20260507045821 10 0 0.0 0.0 0.00 3.07 3.07 88 1016.7
20260507045621 11 0 0.0 0.0 0.00 3.07 3.07 88 1016.7
20260507045421 11 0 0.0 0.0 0.00 3.07 3.07 88 1016.6
20260507045222 11 0 0.0 0.0 0.00 3.07 3.07 88 1016.6
20260507045021 11 0 0.0 0.0 0.00 3.07 3.07 88 1016.6
20260507044842 11 0 0.0 0.0 0.03 3.07 3.07 88 1016.6
20260507044621 11 0 0.0 0.0 0.03 3.07 3.07 88 1016.5
20260507044421 11 0 0.0 0.0 0.03 3.07 3.07 88 1016.5
20260507044221 11 0 0.0 0.0 0.03 3.07 3.07 88 1016.4
20260507044021 11 0 0.0 0.0 0.03 3.07 3.07 88 1016.4
20260507043821 11 0 0.0 0.0 0.03 3.07 3.07 88 1016.3
20260507043621 11 0 0.0 0.0 0.03 3.07 3.07 88 1016.3
20260507043421 11 0 0.0 0.0 0.03 3.07 3.07 88 1016.3
20260507043221 11 0 0.0 0.0 0.03 3.07 3.07 88 1016.3
20260507043022 11 0 0.0 0.0 0.03 3.07 3.07 87 1016.4
20260507042843 11 0 0.0 0.0 0.03 3.07 3.07 87 1016.2
20260507042621 11 0 0.0 0.0 0.03 3.07 3.07 87 1016.2
20260507042421 11 0 0.0 0.0 0.03 3.07 3.07 87 1016.2
20260507042221 11 0 0.0 0.0 0.03 3.07 3.07 87 1016.2
20260507042021 11 0 0.0 0.0 0.03 3.07 3.07 87 1016.2
20260507041821 11 0 0.0 0.0 0.03 3.07 3.07 87 1016.2
20260507041622 11 0 0.0 0.0 0.03 3.07 3.07 87 1016.2
20260507041442 11 0 0.0 0.0 0.03 3.07 3.07 87 1016.1
20260507041221 11 0 0.0 0.0 0.03 3.07 3.07 87 1016.1
20260507041021 11 0 0.0 0.0 0.03 3.07 3.07 87 1016.0
20260507040842 11 44 0.0 1.6 0.03 3.07 3.07 87 1015.9
20260507040621 11 44 0.0 1.6 0.03 3.07 3.07 87 1015.7
20260507040442 11 44 0.0 1.6 0.03 3.07 3.07 87 1015.8
20260507040222 11 42 0.0 1.6 0.03 3.07 3.07 87 1015.7
20260507040021 11 35 0.0 3.2 0.03 3.07 3.07 87 1015.6
20260507035821 11 36 0.0 3.2 0.03 3.07 3.07 87 1015.7
20260507035621 11 37 0.0 3.2 0.03 3.07 3.07 87 1015.6
20260507035421 11 39 0.0 3.2 0.03 3.07 3.07 87 1015.7
20260507035221 11 39 0.0 3.2 0.03 3.07 3.07 88 1016.0
20260507035021 11 47 0.0 3.2 0.03 3.07 3.07 88 1015.9
20260507034821 11 51 0.0 3.2 0.00 3.05 3.05 88 1016.0
20260507034622 11 53 0.0 3.2 0.00 3.05 3.05 88 1016.0
20260507034443 11 60 0.0 3.2 0.00 3.05 3.05 88 1016.0
20260507034221 11 61 0.0 3.2 0.00 3.05 3.05 88 1016.0
20260507034021 11 70 0.0 1.6 0.00 3.05 3.05 88 1016.1
20260507033842 11 32 0.0 1.6 0.00 3.05 3.05 89 1016.3
20260507033642 11 14 0.0 1.6 0.00 3.05 3.05 89 1016.3
20260507033442 11 14 0.0 1.6 0.00 3.05 3.05 89 1016.4
20260507033221 11 14 0.0 1.6 0.00 3.07 3.05 89 1016.4
20260507033021 11 356 0.0 1.6 0.00 3.07 3.05 90 1016.4
20260507032821 11 331 0.0 1.6 0.00 3.07 3.05 90 1016.4
20260507032621 11 302 0.0 1.6 0.00 3.07 3.05 90 1016.3
20260507032421 11 302 0.0 1.6 0.00 3.07 3.05 91 1016.2
20260507032221 11 288 0.0 1.6 0.00 3.07 3.05 91 1016.2
20260507032042 11 288 0.0 1.6 0.00 3.07 3.05 91 1016.1
20260507031821 11 288 0.0 1.6 0.00 3.07 3.05 91 1016.1
20260507031642 11 0 0.0 0.0 0.00 3.07 3.05 91 1016.1
20260507031443 11 0 0.0 0.0 0.00 3.07 3.05 92 1016.0
20260507031221 11 9 0.0 1.6 0.00 3.07 3.05 92 1016.0
20260507031042 11 9 0.0 1.6 0.00 3.07 3.05 92 1015.8
20260507030821 11 9 0.0 1.6 0.03 3.07 3.05 92 1015.8
20260507030621 11 9 0.0 1.6 0.03 3.07 3.05 93 1015.7
20260507030421 11 0 0.0 0.0 0.03 3.07 3.05 93 1015.6
20260507030221 11 0 0.0 0.0 0.03 3.07 3.05 93 1015.6
20260507030021 11 0 0.0 0.0 0.03 3.07 3.05 94 1015.7
20260507025821 11 0 0.0 0.0 0.03 3.07 3.05 94 1015.9
20260507025622 11 0 0.0 0.0 0.03 3.07 3.05 94 1016.0
20260507025421 11 0 0.0 0.0 0.03 3.07 3.05 94 1016.0
20260507025221 11 0 0.0 0.0 0.03 3.07 3.05 94 1016.1
20260507025021 11 0 0.0 0.0 0.03 3.07 3.05 94 1016.2
20260507024821 11 0 0.0 0.0 0.03 3.07 3.05 94 1016.2
20260507024642 11 0 0.0 0.0 0.03 3.07 3.05 94 1016.3
20260507024421 11 0 0.0 0.0 0.03 3.07 3.05 94 1016.3
20260507024221 11 0 0.0 0.0 0.03 3.07 3.05 94 1016.4
20260507024021 11 0 0.0 0.0 0.03 3.07 3.05 94 1016.4
20260507023821 11 0 0.0 0.0 0.03 3.07 3.05 94 1016.3
20260507023621 11 0 0.0 0.0 0.03 3.07 3.05 94 1016.4
20260507023421 11 0 0.0 0.0 0.03 3.07 3.05 94 1016.3
20260507023221 11 0 0.0 0.0 0.03 3.07 3.05 94 1016.2
20260507023042 11 0 0.0 0.0 0.03 3.07 3.05 94 1016.3
20260507022821 11 0 0.0 0.0 0.03 3.07 3.05 94 1016.5
20260507022621 11 0 0.0 0.0 0.03 3.07 3.05 94 1016.4
20260507022422 11 0 0.0 0.0 0.03 3.07 3.05 94 1016.4
20260507022221 11 0 0.0 0.0 0.03 3.07 3.05 94 1016.4
20260507022021 11 0 0.0 0.0 0.03 3.07 3.05 94 1016.4
20260507021842 11 0 0.0 0.0 0.03 3.07 3.05 94 1016.4
20260507021621 11 0 0.0 0.0 0.03 3.07 3.05 94 1016.4
20260507021421 11 0 0.0 0.0 0.03 3.07 3.05 93 1016.4
20260507021221 11 0 0.0 0.0 0.03 3.07 3.05 93 1016.4
20260507021042 11 0 0.0 0.0 0.03 3.07 3.05 93 1016.5
20260507020822 11 0 0.0 0.0 0.00 3.05 3.02 93 1016.5
20260507020621 11 0 0.0 0.0 0.00 3.05 3.02 93 1016.5
20260507020421 12 0 0.0 0.0 0.00 3.05 3.02 93 1016.6
20260507020221 12 0 0.0 0.0 0.00 3.05 3.02 93 1016.6
20260507020021 12 0 0.0 0.0 0.00 3.05 3.02 93 1016.6
20260507015821 12 0 0.0 0.0 0.00 3.05 3.02 93 1016.6
20260507015621 12 0 0.0 0.0 0.00 3.05 3.02 93 1016.6
20260507015421 12 0 0.0 0.0 0.00 3.05 3.02 93 1016.6
20260507015221 12 0 0.0 0.0 0.00 3.05 3.02 93 1016.5
20260507015021 12 0 0.0 0.0 0.00 3.05 3.02 93 1016.5
20260507014821 12 0 0.0 0.0 0.00 3.05 3.02 93 1016.5
20260507014622 12 0 0.0 0.0 0.00 3.05 3.02 93 1016.7
20260507014421 12 0 0.0 0.0 0.00 3.05 3.02 92 1016.7
20260507014221 12 0 0.0 0.0 0.00 3.05 3.02 92 1016.6
20260507014021 12 0 0.0 0.0 0.00 3.05 3.02 92 1016.6
20260507013821 12 0 0.0 0.0 0.00 3.05 3.02 92 1016.6
20260507013642 12 0 0.0 0.0 0.00 3.05 3.02 92 1016.5
20260507013421 12 0 0.0 0.0 0.00 3.05 3.02 91 1016.5
20260507013242 12 270 0.0 1.6 0.03 3.05 3.02 91 1016.3
20260507013021 12 270 0.0 1.6 0.03 3.05 3.02 91 1016.1
20260507012842 12 270 0.0 1.6 0.03 3.05 3.02 91 1015.7
20260507012621 12 269 0.0 1.6 0.03 3.05 3.02 91 1015.6
20260507012421 12 270 0.0 1.6 0.03 3.05 3.02 91 1015.5
20260507012242 12 270 0.0 1.6 0.03 3.05 3.02 91 1015.4
20260507012021 12 270 0.0 1.6 0.03 3.05 3.02 91 1015.4
20260507011821 12 270 0.0 1.6 0.03 3.05 3.02 91 1015.6
20260507011621 12 272 0.0 1.6 0.03 3.05 3.02 92 1015.5
20260507011421 12 271 0.0 1.6 0.03 3.05 3.02 92 1015.6
20260507011221 12 271 0.0 1.6 0.03 3.05 3.02 92 1015.6
20260507011042 12 279 0.0 1.6 0.03 3.05 3.02 92 1015.3
20260507010821 12 279 0.0 1.6 0.03 3.05 3.02 93 1015.1
20260507010621 12 288 0.0 1.6 0.03 3.05 3.02 93 1015.1
20260507010421 12 359 0.0 1.6 0.03 3.05 3.02 93 1015.2
20260507010221 12 13 0.0 1.6 0.03 3.05 3.02 93 1015.1
20260507010021 12 13 0.0 1.6 0.03 3.05 3.02 93 1014.9
20260507005821 12 13 0.0 1.6 0.03 3.05 3.02 93 1014.9
20260507005621 12 0 0.0 0.0 0.03 3.05 3.02 93 1014.7
20260507005421 12 0 0.0 0.0 0.03 3.05 3.02 93 1014.7
20260507005221 12 0 0.0 0.0 0.03 3.05 3.02 93 1014.8
20260507005042 12 0 0.0 0.0 0.03 3.05 3.02 93 1014.8
20260507004842 12 0 0.0 0.0 0.03 3.05 3.02 93 1014.8
20260507004642 12 0 0.0 0.0 0.03 3.05 3.02 93 1014.8
20260507004421 12 0 0.0 0.0 0.03 3.05 3.02 93 1014.8
20260507004221 12 0 0.0 0.0 0.03 3.05 3.02 93 1014.6
20260507004021 12 0 0.0 0.0 0.03 3.05 3.02 93 1014.3
20260507003821 12 0 0.0 0.0 0.03 3.05 3.02 93 1014.3
20260507003623 12 0 0.0 0.0 0.03 3.05 3.02 93 1014.4
20260507003421 12 0 0.0 0.0 0.03 3.05 3.02 94 1014.4
20260507003221 12 19 0.0 1.6 0.00 3.02 3.00 94 1014.4
20260507003021 12 19 0.0 1.6 0.00 3.02 3.00 94 1014.6
20260507002821 12 19 0.0 1.6 0.00 3.02 3.00 94 1014.7
20260507002621 12 19 0.0 1.6 0.00 3.02 3.00 94 1014.6
20260507002421 12 19 0.0 1.6 0.00 3.02 3.00 94 1014.5
20260507002221 12 20 0.0 1.6 0.00 3.02 3.00 94 1014.2
20260507002021 12 20 0.0 1.6 0.00 3.02 3.00 93 1014.2
20260507001821 12 20 0.0 1.6 0.00 3.02 3.00 93 1014.4
20260507001622 12 20 0.0 1.6 0.00 3.02 3.00 93 1014.5
20260507001421 12 19 0.0 1.6 0.00 3.02 3.00 93 1014.5
20260507001221 12 17 0.0 1.6 0.00 3.02 3.00 93 1014.5
20260507001021 12 14 0.0 1.6 0.00 3.02 3.00 93 1014.4
20260507000821 12 14 0.0 1.6 0.00 3.02 3.00 93 1014.2
20260507000621 12 358 0.0 1.6 0.00 3.02 3.00 93 1014.2
20260507000421 12 327 0.0 1.6 0.00 3.02 3.00 93 1014.3
20260507000221 12 308 0.0 1.6 0.00 3.02 3.00 93 1014.3
20260507000022 12 276 0.0 1.6 0.03 3.02 3.00 93 1014.2
20260506235821 12 276 0.0 1.6 0.03 3.02 3.00 93 1014.5
20260506235621 12 277 0.0 1.6 0.03 3.02 3.00 93 1014.4
20260506235421 12 280 0.0 1.6 0.03 3.02 3.00 93 1014.0
20260506235221 12 280 0.0 1.6 0.03 3.02 3.00 93 1013.9
20260506235021 12 280 0.0 1.6 0.03 3.02 3.00 93 1014.0
20260506234821 12 280 0.0 1.6 0.03 3.02 3.00 93 1014.5
20260506234621 12 0 0.0 0.0 0.03 3.02 3.00 93 1014.9
20260506234421 12 281 0.0 1.6 0.03 3.02 3.00 92 1015.2
20260506234242 12 281 0.0 1.6 0.03 3.02 3.00 92 1015.1
20260506234042 12 281 0.0 1.6 0.03 3.02 3.00 92 1014.9
20260506233822 12 281 0.0 1.6 0.03 3.02 3.00 92 1014.9
20260506233621 12 280 0.0 1.6 0.03 3.02 3.00 92 1015.1
20260506233442 12 280 0.0 1.6 0.03 3.02 3.00 92 1015.4
20260506233221 12 280 0.0 1.6 0.03 3.02 3.00 92 1015.6
20260506233021 12 280 0.0 1.6 0.03 3.02 3.00 92 1015.9
20260506232821 12 280 0.0 1.6 0.03 3.02 3.00 92 1016.0
20260506232621 12 280 0.0 1.6 0.03 3.02 3.00 92 1016.0
20260506232442 12 280 0.0 1.6 0.03 3.02 3.00 92 1016.1
20260506232242 13 280 0.0 1.6 0.03 3.02 3.00 92 1015.8
20260506232021 13 280 0.0 1.6 0.03 3.02 3.00 92 1015.4
20260506231821 13 280 0.0 1.6 0.03 3.02 3.00 92 1015.0
20260506231642 13 280 0.0 1.6 0.03 3.02 3.00 92 1014.8
20260506231421 13 280 0.0 1.6 0.03 3.02 3.00 91 1014.7
20260506231242 13 280 0.0 1.6 0.03 3.02 3.00 91 1014.6
20260506231021 13 0 0.0 0.0 0.03 3.02 3.00 91 1014.7
20260506230842 13 0 0.0 0.0 0.03 3.02 3.00 91 1014.9
20260506230621 13 281 0.0 1.6 0.03 3.02 3.00 91 1014.9
20260506230421 13 281 0.0 1.6 0.03 3.02 3.00 91 1015.0
20260506230221 13 284 0.0 3.2 0.03 3.02 3.00 91 1015.2
20260506230021 13 285 0.0 3.2 0.00 3.00 2.97 91 1015.2
20260506225843 13 285 0.0 3.2 0.00 3.00 2.97 91 1015.4
20260506225642 13 286 0.0 3.2 0.00 3.00 2.97 91 1015.2
20260506225421 13 286 0.0 3.2 0.00 3.00 2.97 91 1015.3
20260506225221 13 292 0.0 1.6 0.00 3.00 2.97 90 1015.2
20260506225021 13 291 0.0 1.6 0.00 3.00 2.97 90 1014.9
20260506224821 13 291 0.0 1.6 0.00 3.00 2.97 90 1015.0
20260506224622 13 291 0.0 1.6 0.00 3.00 2.97 90 1015.1
20260506224421 13 291 0.0 1.6 0.00 3.00 2.97 90 1015.1
20260506224221 13 291 0.0 1.6 0.00 3.00 2.97 90 1015.2
20260506224043 13 291 0.0 1.6 0.03 3.00 2.97 90 1015.5
20260506223821 13 291 0.0 1.6 0.03 3.00 2.97 89 1015.4
20260506223621 13 291 0.0 1.6 0.03 3.00 2.97 88 1015.0
20260506223442 13 291 0.0 1.6 0.03 3.00 2.97 88 1014.8
20260506223221 13 291 0.0 1.6 0.03 3.00 2.97 88 1015.2
20260506223021 13 287 0.0 3.2 0.03 3.00 2.97 88 1015.1
20260506222821 13 287 0.0 3.2 0.03 3.00 2.97 88 1014.7
20260506222621 13 287 0.0 3.2 0.03 3.00 2.97 87 1014.6
20260506222421 13 286 0.0 3.2 0.03 3.00 2.97 87 1014.6
20260506222221 13 284 0.0 3.2 0.03 3.00 2.97 87 1014.7
20260506222021 13 282 0.0 1.6 0.03 3.00 2.97 87 1014.9
20260506221821 13 287 0.0 1.6 0.03 3.00 2.97 86 1014.7
20260506221621 13 286 0.0 1.6 0.03 3.00 2.97 86 1014.5
20260506221421 13 272 0.0 3.2 0.03 3.00 2.97 86 1014.4
20260506221221 13 250 0.0 3.2 0.03 3.00 2.97 87 1014.3
20260506221042 13 255 0.0 3.2 0.03 3.00 2.97 87 1014.0
20260506220821 13 280 0.0 3.2 0.03 3.00 2.97 87 1014.5
20260506220621 13 280 0.0 3.2 0.03 3.00 2.97 87 1015.0
20260506220442 13 286 0.0 3.2 0.03 3.00 2.97 87 1014.8
20260506220221 13 274 0.0 3.2 0.03 3.00 2.97 87 1015.3
20260506220022 13 273 0.0 3.2 0.03 3.00 2.97 87 1015.6
20260506215821 13 266 0.0 3.2 0.03 3.00 2.97 87 1014.9
20260506215621 14 266 0.0 3.2 0.03 3.00 2.97 87 1014.8
20260506215421 14 270 0.0 3.2 0.03 3.00 2.97 87 1014.7
20260506215221 14 286 0.0 3.2 0.03 3.00 2.97 87 1014.3
20260506215042 14 287 0.0 3.2 0.03 3.00 2.97 88 1014.4
20260506214821 14 317 0.0 1.6 0.03 3.00 2.97 89 1014.2
20260506214621 14 322 0.0 1.6 0.03 3.00 2.97 89 1014.4
20260506214421 14 322 0.0 1.6 0.03 3.00 2.97 89 1014.5
20260506214221 14 327 0.0 1.6 0.03 3.00 2.97 89 1014.7
20260506214042 14 338 0.0 1.6 0.00 2.97 2.95 89 1015.0
20260506213821 14 338 0.0 1.6 0.00 2.97 2.95 89 1015.0
20260506213621 14 0 0.0 0.0 0.00 2.97 2.95 88 1014.8
20260506213442 14 0 0.0 0.0 0.00 2.97 2.95 88 1014.7
20260506213221 14 0 0.0 0.0 0.00 2.97 2.95 88 1014.5
20260506213021 14 0 0.0 0.0 0.00 2.97 2.95 88 1014.3
20260506212821 14 0 0.0 0.0 0.00 2.97 2.95 87 1014.1
20260506212642 14 0 0.0 0.0 0.00 2.97 2.95 86 1013.9
20260506212421 14 0 0.0 0.0 0.00 2.97 2.95 87 1013.7
20260506212221 14 0 0.0 0.0 0.03 2.97 2.95 87 1013.7
20260506212021 15 0 0.0 0.0 0.03 2.97 2.95 86 1013.6
20260506211821 14 0 0.0 0.0 0.03 2.97 2.95 86 1013.4
20260506211621 15 0 0.0 0.0 0.03 2.97 2.95 86 1013.4
20260506211443 15 0 0.0 0.0 0.03 2.97 2.95 86 1013.5
20260506211221 15 0 0.0 0.0 0.03 2.97 2.95 86 1013.6
20260506211021 15 0 0.0 0.0 0.03 2.97 2.95 85 1013.7
20260506210842 15 0 0.0 0.0 0.03 2.97 2.95 85 1013.9
20260506210621 15 0 0.0 0.0 0.03 2.97 2.95 84 1013.9
20260506210442 15 0 0.0 0.0 0.03 2.97 2.95 84 1014.0
20260506210221 15 0 0.0 0.0 0.03 2.97 2.95 84 1014.0
20260506210021 15 0 0.0 0.0 0.03 2.97 2.95 83 1014.0
20260506205821 15 0 0.0 0.0 0.03 2.97 2.95 83 1014.0
20260506205643 15 0 0.0 0.0 0.03 2.97 2.95 83 1013.8
20260506205421 15 23 0.0 1.6 0.03 2.97 2.95 82 1013.9
20260506205221 15 23 0.0 1.6 0.03 2.97 2.95 82 1014.0
20260506205021 15 337 0.0 3.2 0.03 2.97 2.95 82 1014.1
20260506204821 15 339 0.0 3.2 0.03 2.97 2.95 81 1014.2
20260506204621 15 348 0.0 3.2 0.03 2.97 2.95 81 1014.5
20260506204421 15 322 0.0 3.2 0.03 2.97 2.95 81 1014.6
20260506204221 15 297 0.0 3.2 0.03 2.97 2.95 82 1014.7
20260506204044 15 286 0.0 3.2 0.03 2.97 2.95 82 1014.8
20260506203822 15 284 0.0 3.2 0.03 2.97 2.95 81 1014.7
20260506203621 15 278 0.0 3.2 0.03 2.97 2.95 81 1014.5
20260506203421 15 278 0.0 3.2 0.03 2.97 2.95 80 1014.7
20260506203221 15 275 0.0 1.6 0.03 2.97 2.95 80 1014.7
20260506203021 15 276 0.0 3.2 0.03 2.97 2.95 80 1014.6
20260506202821 15 277 0.0 3.2 0.03 2.97 2.95 80 1014.7
20260506202622 15 279 0.0 3.2 0.03 2.97 2.95 80 1014.8
20260506202421 15 279 0.0 3.2 0.03 2.97 2.95 80 1014.9
20260506202242 15 276 1.6 4.8 0.00 2.95 2.92 80 1015.0
20260506202021 15 274 1.6 4.8 0.00 2.95 2.92 80 1015.0
20260506201821 15 272 1.6 4.8 0.00 2.95 2.92 80 1015.0
20260506201621 15 274 1.6 4.8 0.00 2.95 2.92 79 1014.9
20260506201442 15 274 1.6 4.8 0.03 2.95 2.92 79 1014.6
20260506201242 15 274 1.6 4.8 0.03 2.95 2.92 79 1014.6
20260506201042 15 277 1.6 4.8 0.03 2.95 2.92 79 1014.7
20260506200821 15 278 1.6 4.8 0.03 2.95 2.92 78 1014.6
20260506200621 15 286 1.6 4.8 0.03 2.95 2.92 79 1014.5
20260506200421 15 317 0.0 4.8 0.03 2.95 2.92 78 1014.2
20260506200221 15 355 0.0 4.8 0.03 2.95 2.92 78 1014.2
20260506200021 15 26 0.0 4.8 0.03 2.95 2.92 78 1014.1
20260506195821 15 25 0.0 4.8 0.03 2.95 2.92 78 1014.0
20260506195621 16 21 0.0 4.8 0.03 2.95 2.92 78 1013.9
20260506195422 16 20 0.0 4.8 0.03 2.95 2.92 78 1013.9
20260506195221 16 7 0.0 3.2 0.03 2.95 2.92 78 1014.0
20260506195042 16 355 0.0 3.2 0.03 2.95 2.92 77 1014.1
20260506194821 16 8 0.0 3.2 0.03 2.95 2.92 77 1014.3
20260506194621 16 3 0.0 3.2 0.03 2.95 2.92 77 1014.6
20260506194421 16 356 0.0 3.2 0.03 2.95 2.92 78 1014.6
20260506194221 16 315 0.0 3.2 0.03 2.95 2.92 77 1014.7
20260506194021 16 357 0.0 3.2 0.03 2.95 2.92 76 1014.7
20260506193821 16 349 0.0 3.2 0.03 2.95 2.92 76 1014.5
20260506193621 16 319 0.0 3.2 0.03 2.95 2.92 75 1014.3
20260506193443 16 298 0.0 3.2 0.03 2.95 2.92 75 1014.3
20260506193221 16 294 0.0 3.2 0.03 2.95 2.92 75 1014.4
20260506193042 16 265 0.0 1.6 0.03 2.95 2.92 74 1014.5
20260506192821 16 265 1.6 1.6 0.03 2.95 2.92 74 1014.6
20260506192621 16 265 1.6 1.6 0.03 2.95 2.92 74 1014.6
20260506192421 16 277 1.6 6.4 0.03 2.95 2.92 74 1014.7
20260506192242 16 280 1.6 6.4 0.05 2.95 2.92 74 1014.7
20260506192021 16 280 0.0 6.4 0.05 2.95 2.92 75 1014.7
20260506191822 16 280 0.0 6.4 0.05 2.95 2.92 75 1014.7
20260506191621 16 279 0.0 6.4 0.05 2.95 2.92 74 1014.7
20260506191421 16 280 0.0 4.8 0.03 2.92 2.90 75 1014.6
20260506191221 16 279 0.0 3.2 0.03 2.92 2.90 75 1014.4
20260506191021 16 279 0.0 3.2 0.03 2.92 2.90 75 1014.4
20260506190822 16 279 0.0 1.6 0.03 2.92 2.90 75 1014.6
20260506190621 16 284 0.0 1.6 0.03 2.92 2.90 74 1014.7
20260506190421 16 319 0.0 1.6 0.03 2.92 2.90 75 1014.7
20260506190221 16 332 0.0 1.6 0.03 2.92 2.90 75 1014.7
20260506190021 16 334 0.0 1.6 0.03 2.92 2.90 74 1014.7
20260506185821 16 354 0.0 1.6 0.03 2.92 2.90 76 1014.7
20260506185621 16 17 0.0 1.6 0.03 2.92 2.90 75 1014.9
20260506185421 16 322 0.0 1.6 0.03 2.92 2.90 75 1015.0
20260506185221 16 277 0.0 4.8 0.03 2.92 2.90 74 1015.1
20260506185044 16 355 0.0 4.8 0.03 2.92 2.90 75 1014.9
20260506184821 16 10 0.0 4.8 0.03 2.92 2.90 75 1014.9
20260506184623 16 355 0.0 4.8 0.03 2.92 2.90 74 1014.9
20260506184422 16 351 0.0 4.8 0.03 2.92 2.90 74 1014.9
20260506184221 16 14 0.0 4.8 0.03 2.92 2.90 74 1014.9
20260506184021 16 357 0.0 3.2 0.03 2.92 2.90 74 1014.9
20260506183821 16 354 0.0 3.2 0.03 2.92 2.90 75 1014.9
20260506183642 16 1 0.0 3.2 0.03 2.92 2.90 76 1014.8
20260506183421 16 17 0.0 3.2 0.03 2.92 2.90 75 1014.8
20260506183223 16 22 0.0 3.2 0.05 2.92 2.90 75 1014.8
20260506183042 16 39 1.6 3.2 0.05 2.92 2.90 76 1014.7
20260506182821 16 35 1.6 3.2 0.05 2.92 2.90 76 1014.6
20260506182621 16 38 1.6 4.8 0.05 2.92 2.90 77 1014.5
20260506182421 16 40 1.6 6.4 0.05 2.92 2.90 77 1014.3
20260506182222 16 36 1.6 6.4 0.03 2.90 2.87 76 1014.3
20260506182021 16 21 1.6 6.4 0.03 2.90 2.87 76 1014.2
20260506181842 16 20 0.0 6.4 0.03 2.90 2.87 76 1014.2
20260506181621 16 19 0.0 6.4 0.03 2.90 2.87 77 1014.2
20260506181421 16 313 1.6 4.8 0.03 2.90 2.87 76 1014.2
20260506181242 16 305 1.6 4.8 0.03 2.90 2.87 77 1014.2
20260506181021 16 309 1.6 4.8 0.03 2.90 2.87 78 1014.3
20260506180821 16 336 1.6 6.4 0.03 2.90 2.87 77 1014.2
20260506180621 16 338 1.6 6.4 0.03 2.90 2.87 76 1014.3
20260506180421 16 9 1.6 6.4 0.03 2.90 2.87 76 1014.4
20260506180222 16 41 1.6 6.4 0.03 2.90 2.87 78 1014.4
20260506180021 16 48 1.6 6.4 0.03 2.90 2.87 78 1014.2
20260506175843 16 53 1.6 4.8 0.03 2.90 2.87 80 1014.2
20260506175621 16 60 1.6 4.8 0.03 2.90 2.87 80 1014.3
20260506175421 16 47 1.6 4.8 0.03 2.90 2.87 80 1014.3
20260506175221 16 48 3.2 4.8 0.03 2.90 2.87 80 1014.2
20260506175042 15 36 3.2 6.4 0.03 2.90 2.87 81 1014.2
20260506174842 15 24 3.2 6.4 0.03 2.90 2.87 82 1014.1
20260506174621 15 5 3.2 6.4 0.03 2.90 2.87 81 1014.1
20260506174421 15 327 1.6 8.0 0.03 2.90 2.87 81 1014.0
20260506174221 15 322 1.6 8.0 0.03 2.90 2.87 82 1014.0
20260506174021 15 287 1.6 8.0 0.03 2.90 2.87 82 1014.1
20260506173843 15 313 1.6 8.0 0.03 2.90 2.87 83 1014.0
20260506173621 15 6 1.6 8.0 0.05 2.90 2.87 83 1014.1
20260506173421 15 354 1.6 6.4 0.05 2.90 2.87 86 1013.9
20260506173242 15 342 1.6 6.4 0.03 2.87 2.84 86 1013.9
20260506173022 15 349 1.6 6.4 0.03 2.87 2.84 87 1013.9
20260506172821 15 352 1.6 6.4 0.03 2.87 2.84 86 1014.0
20260506172621 15 351 1.6 6.4 0.03 2.87 2.84 85 1013.9
20260506172422 15 40 1.6 6.4 0.03 2.87 2.84 88 1014.0
20260506172221 15 34 1.6 6.4 0.03 2.87 2.84 87 1014.0
20260506172021 15 345 1.6 6.4 0.03 2.87 2.84 87 1014.0
20260506171821 15 303 1.6 9.7 0.03 2.87 2.84 86 1014.1
20260506171621 15 290 1.6 9.7 0.03 2.87 2.84 86 1014.2
20260506171421 15 282 1.6 9.7 0.03 2.87 2.84 86 1014.4
20260506171221 15 285 1.6 9.7 0.03 2.87 2.84 85 1014.5
20260506171021 15 303 1.6 9.7 0.03 2.87 2.84 86 1014.4
20260506170821 15 322 1.6 9.7 0.03 2.87 2.84 87 1014.4
20260506170643 15 302 1.6 6.4 0.03 2.87 2.84 88 1014.4
20260506170421 14 284 1.6 6.4 0.03 2.87 2.84 87 1014.4
20260506170222 14 284 1.6 6.4 0.03 2.87 2.84 87 1014.5
20260506170042 14 279 1.6 6.4 0.03 2.87 2.84 88 1014.5
20260506165821 14 279 1.6 6.4 0.03 2.87 2.84 85 1014.6
20260506165622 14 278 1.6 6.4 0.03 2.87 2.84 85 1014.6
20260506165422 14 280 1.6 4.8 0.03 2.87 2.84 88 1014.6
20260506165221 14 284 1.6 6.4 0.03 2.87 2.84 88 1014.6
20260506165022 14 303 1.6 6.4 0.03 2.87 2.84 88 1014.6
20260506164842 14 357 1.6 6.4 0.05 2.87 2.84 88 1014.6
20260506164642 14 30 1.6 6.4 0.05 2.87 2.84 88 1014.6
20260506164421 13 50 1.6 6.4 0.05 2.87 2.84 90 1014.6
20260506164221 13 48 1.6 6.4 0.05 2.87 2.84 90 1014.5
20260506164044 13 41 1.6 6.4 0.05 2.87 2.84 90 1014.5
20260506163842 13 39 1.6 6.4 0.05 2.87 2.84 89 1014.6
20260506163624 13 36 1.6 6.4 0.03 2.84 2.82 91 1014.6
20260506163442 13 33 1.6 6.4 0.03 2.84 2.82 91 1014.7
20260506163221 13 38 1.6 6.4 0.03 2.84 2.82 90 1014.7
20260506163022 13 39 1.6 6.4 0.03 2.84 2.82 90 1014.7
20260506162821 13 38 1.6 6.4 0.03 2.84 2.82 91 1014.8
20260506162621 13 39 1.6 6.4 0.03 2.84 2.82 91 1014.9
20260506162423 13 49 1.6 8.0 0.03 2.84 2.82 91 1014.8
20260506162221 13 49 1.6 8.0 0.03 2.84 2.82 91 1014.8
20260506162022 13 49 1.6 8.0 0.03 2.84 2.82 91 1014.8
20260506161843 13 49 1.6 8.0 0.03 2.84 2.82 92 1014.8
20260506161622 13 16 1.6 8.0 0.03 2.84 2.82 92 1014.7
20260506161422 13 337 1.6 8.0 0.03 2.84 2.82 93 1014.7
20260506161221 13 312 1.6 8.0 0.03 2.84 2.82 92 1014.8
20260506161021 12 301 1.6 8.0 0.03 2.84 2.82 91 1014.8
20260506160821 12 280 1.6 6.4 0.05 2.84 2.82 90 1014.8
20260506160642 12 281 1.6 6.4 0.05 2.84 2.82 92 1014.8
20260506160421 12 277 1.6 6.4 0.05 2.84 2.82 91 1014.7
20260506160222 12 286 1.6 6.4 0.05 2.84 2.82 92 1014.6
20260506160021 12 304 1.6 6.4 0.05 2.84 2.82 92 1014.5
20260506155842 12 304 1.6 6.4 0.05 2.84 2.82 92 1014.6
20260506155622 12 314 0.0 4.8 0.05 2.84 2.82 92 1014.6
20260506155421 13 1 0.0 4.8 0.05 2.84 2.82 93 1014.6
20260506155222 13 336 0.0 4.8 0.05 2.84 2.82 94 1014.7
20260506155021 13 288 0.0 4.8 0.05 2.84 2.82 92 1014.5
20260506154842 13 312 0.0 4.8 0.03 2.82 2.79 94 1014.4
20260506154622 13 39 0.0 3.2 0.03 2.82 2.79 94 1014.3
20260506154421 13 102 0.0 4.8 0.03 2.82 2.79 94 1014.3
20260506154221 13 104 0.0 4.8 0.03 2.82 2.79 96 1014.3
20260506154021 13 66 0.0 4.8 0.03 2.82 2.79 97 1014.3
20260506153823 13 62 0.0 4.8 0.03 2.82 2.79 97 1014.3
20260506153621 12 61 0.0 4.8 0.03 2.82 2.79 97 1014.3
20260506153423 12 40 0.0 4.8 0.03 2.82 2.79 97 1014.2
20260506153221 12 24 1.6 4.8 0.05 2.82 2.79 97 1014.2
20260506153021 12 34 1.6 4.8 0.05 2.82 2.79 98 1014.1
20260506152821 12 35 1.6 4.8 0.05 2.82 2.79 98 1014.1
20260506152621 12 35 1.6 4.8 0.05 2.82 2.79 98 1014.2
20260506152421 12 29 1.6 4.8 0.05 2.82 2.79 98 1014.1
20260506152221 12 31 1.6 4.8 0.05 2.82 2.79 98 1014.0
20260506152021 11 24 0.0 4.8 0.05 2.82 2.79 99 1014.0
20260506151842 11 11 0.0 3.2 0.05 2.82 2.79 99 1014.0
20260506151622 11 10 1.6 3.2 0.05 2.82 2.79 98 1014.0
20260506151422 11 3 1.6 3.2 0.05 2.82 2.79 99 1013.9
20260506151221 11 333 1.6 3.2 0.05 2.82 2.79 99 1013.8
20260506151021 11 1 1.6 4.8 0.05 2.82 2.79 99 1013.7
20260506150823 11 16 1.6 4.8 0.03 2.79 2.77 98 1013.6
20260506150621 11 15 1.6 6.4 0.03 2.79 2.77 98 1013.6
20260506150442 11 28 1.6 6.4 0.03 2.79 2.77 98 1013.6
20260506150242 10 36 1.6 6.4 0.05 2.79 2.77 98 1013.6
20260506150022 10 41 1.6 6.4 0.05 2.79 2.77 98 1013.6
20260506145822 10 37 1.6 6.4 0.05 2.79 2.77 98 1013.6
20260506145621 10 38 1.6 8.0 0.05 2.79 2.77 98 1013.7